QPF
0.05 0.06 0.06 0.06 0.06 0.06 0.06 0.08 0.10 0.10 0.11 0.12 0.09 0.06 0.06 0.05 0.08 0.06 0.06 0.07 0.06 0.04 0.02 0.01 0.01 0.01 0.02 0.02 0.03 0.04 0.04 0.04 0.06 0.08 0.11 0.14 0.16 0.17
0.04 0.04 0.04 0.04 0.05 0.05 0.05 0.06 0.09 0.11 0.10 0.08 0.10 0.08 0.07 0.06 0.12 0.09 0.10 0.12 0.11 0.08 0.06 0.03 0.02 0.02 0.02 0.03 0.03 0.04 0.05 0.06 0.06 0.07 0.08 0.10 0.12 0.13
0.03 0.03 0.03 0.04 0.05 0.05 0.05 0.05 0.05 0.08 0.08 0.06 0.07 0.08 0.09 0.07 0.09 0.10 0.11 0.12 0.11 0.07 0.06 0.05 0.04 0.03 0.03 0.03 0.03 0.04 0.04 0.04 0.05 0.05 0.06 0.08 0.09 0.11
0.03 0.03 0.03 0.05 0.06 0.05 0.04 0.04 0.05 0.08 0.09 0.08 0.07 0.08 0.08 0.07 0.07 0.07 0.06 0.06 0.07 0.08 0.08 0.06 0.04 0.03 0.03 0.03 0.03 0.03 0.02 0.02 0.03 0.03 0.05 0.06 0.08 0.08
0.04 0.04 0.05 0.05 0.05 0.06 0.06 0.05 0.05 0.06 0.09 0.08 0.08 0.09 0.08 0.07 0.07 0.05 0.05 0.06 0.03 0.05 0.05 0.05 0.04 0.03 0.02 0.02 0.02 0.02 0.02 0.02 0.03 0.04 0.05 0.06 0.06 0.07
0.04 0.04 0.04 0.04 0.04 0.04 0.04 0.03 0.03 0.04 0.05 0.06 0.06 0.06 0.06 0.07 0.07 0.06 0.06 0.05 0.04 0.03 0.03 0.03 0.04 0.04 0.03 0.03 0.02 0.02 0.02 0.03 0.02 0.03 0.04 0.04 0.05 0.06
0.03 0.02 0.02 0.02 0.02 0.02 0.01 0.02 0.02 0.03 0.04 0.04 0.04 0.04 0.04 0.05 0.04 0.05 0.05 0.05 0.05 0.05 0.05 0.04 0.05 0.05 0.05 0.05 0.04 0.03 0.03 0.03 0.02 0.02 0.02 0.02 0.03 0.04
0.03 0.03 0.03 0.03 0.02 0.02 0.01 0.01 0.01 0.02 0.03 0.04 0.03 0.03 0.04 0.04 0.04 0.04 0.04 0.04 0.05 0.06 0.07 0.08 0.10 0.10 0.10 0.10 0.09 0.07 0.05 0.04 0.04 0.03 0.03 0.03 0.03 0.03
0.04 0.04 0.03 0.03 0.04 0.03 0.02 0.01 0.01 0.01 0.01 0.02 0.02 0.03 0.03 0.03 0.03 0.04 0.04 0.05 0.06 0.07 0.08 0.08 0.08 0.09 0.08 0.08 0.09 0.08 0.07 0.06 0.05 0.05 0.04 0.04 0.04 0.04
0.04 0.04 0.04 0.03 0.03 0.03 0.03 0.03 0.02 0.02 0.02 0.01 0.01 0.02 0.02 0.02 0.02 0.03 0.03 0.03 0.04 0.03 0.04 0.04 0.04 0.05 0.05 0.05 0.06 0.05 0.05 0.05 0.05 0.05 0.05 0.04 0.04 0.04
0.03 0.03 0.03 0.03 0.03 0.03 0.03 0.03 0.02 0.02 0.02 0.01 0.01 0.01 0.01 0.01 0.01 0.01 0.03 0.04 0.04 0.04 0.03 0.03 0.03 0.04 0.04 0.03 0.04 0.03 0.03 0.03 0.04 0.04 0.04 0.04 0.03 0.03
0.04 0.03 0.02 0.02 0.02 0.02 0.02 0.01 0.01 0.02 0.01 0.01 0.02 0.02 0.02 0.01 0.01 0.01 0.02 0.03 0.04 0.03 0.02 0.02 0.02 0.03 0.03 0.03 0.02 0.02 0.02 0.02 0.03 0.03 0.04 0.03 0.03 0.03
0.04 0.04 0.04 0.04 0.03 0.02 0.02 0.01 0.01 0.01 0.01 0.02 0.03 0.03 0.02 0.02 0.02 0.01 0.02 0.03 0.03 0.03 0.03 0.03 0.02 0.03 0.02 0.02 0.02 0.02 0.02 0.02 0.02 0.02 0.03 0.03 0.03 0.04
0.04 0.05 0.05 0.04 0.03 0.02 0.01 0.00 0.00 0.00 0.01 0.02 0.03 0.03 0.03 0.03 0.03 0.04 0.03 0.03 0.03 0.03 0.03 0.03 0.03 0.02 0.02 0.02 0.02 0.01 0.01 0.01 0.02 0.01 0.01 0.02 0.02 0.03
0.04 0.04 0.03 0.02 0.01 0.01 0.01 0.01 0.01 0.01 0.02 0.02 0.03 0.03 0.03 0.04 0.05 0.04 0.04 0.03 0.03 0.03 0.02 0.02 0.02 0.02 0.02 0.03 0.02 0.01 0.01 0.01 0.01 0.01 0.01 0.01 0.01 0.02
0.02 0.02 0.02 0.01 0.01 0.01 0.01 0.01 0.01 0.01 0.01 0.03 0.03 0.04 0.04 0.04 0.03 0.03 0.03 0.02 0.02 0.02 0.01 0.02 0.02 0.02 0.02 0.03 0.03 0.02 0.01 0.01 0.02 0.02 0.02 0.02 0.01 0.02
0.02 0.02 0.02 0.01 0.01 0.01 0.01 0.01 0.00 0.00 0.01 0.01 0.03 0.03 0.03 0.02 0.02 0.02 0.03 0.02 0.01 0.01 0.01 0.01 0.01 0.02 0.03 0.03 0.03 0.03 0.02 0.02 0.02 0.03 0.04 0.04 0.03 0.02
0.02 0.02 0.01 0.01 0.01 0.00 0.01 0.01 0.00 0.00 0.00 0.01 0.01 0.02 0.02 0.01 0.01 0.01 0.01 0.02 0.02 0.02 0.02 0.01 0.01 0.02 0.02 0.03 0.03 0.03 0.03 0.03 0.03 0.03 0.04 0.04 0.04 0.03
0.02 0.02 0.01 0.01 0.01 0.01 0.01 0.01 0.01 0.01 0.01 0.02 0.01 0.02 0.02 0.01 0.01 0.01 0.01 0.01 0.01 0.01 0.02 0.02 0.02 0.02 0.02 0.03 0.03 0.02 0.03 0.03 0.03 0.03 0.03 0.04 0.04 0.03
0.03 0.02 0.02 0.02 0.02 0.02 0.02 0.02 0.02 0.03 0.03 0.02 0.02 0.02 0.02 0.02 0.02 0.02 0.01 0.01 0.01 0.01 0.01 0.02 0.02 0.02 0.03 0.04 0.03 0.02 0.02 0.02 0.03 0.03 0.03 0.03 0.03 0.03
0.03 0.03 0.03 0.03 0.03 0.03 0.03 0.04 0.04 0.04 0.03 0.03 0.03 0.03 0.02 0.02 0.02 0.02 0.02 0.02 0.02 0.02 0.02 0.02 0.02 0.02 0.03 0.04 0.04 0.04 0.04 0.03 0.03 0.03 0.04 0.04 0.04 0.03
0.03 0.03 0.03 0.04 0.04 0.04 0.04 0.03 0.03 0.03 0.03 0.03 0.03 0.03 0.03 0.03 0.03 0.03 0.02 0.02 0.02 0.02 0.01 0.02 0.02 0.03 0.03 0.04 0.04 0.04 0.04 0.04 0.04 0.02 0.02 0.03 0.03 0.03
0.04 0.03 0.03 0.03 0.03 0.03 0.03 0.03 0.03 0.03 0.03 0.03 0.03 0.04 0.04 0.04 0.04 0.04 0.03 0.02 0.02 0.02 0.02 0.02 0.03 0.04 0.04 0.04 0.03 0.03 0.04 0.05 0.05 0.05 0.04 0.02 0.01 0.01
MSLP
1014.27 1014.41 1014.58 1014.75 1014.90 1015.00 1015.02 1014.95 1014.77 1014.50 1014.16 1013.78 1013.40 1013.07 1012.80 1012.63 1012.56 1012.59 1012.70 1012.87 1013.08 1013.30 1013.48 1013.63 1013.71 1013.74 1013.71 1013.63 1013.55 1013.46 1013.40 1013.38 1013.42 1013.51 1013.64 1013.82 1014.01 1014.19
1013.52 1013.63 1013.78 1013.97 1014.16 1014.33 1014.45 1014.49 1014.44 1014.30 1014.08 1013.81 1013.51 1013.23 1012.98 1012.80 1012.69 1012.67 1012.73 1012.85 1013.00 1013.17 1013.33 1013.46 1013.55 1013.59 1013.58 1013.53 1013.47 1013.40 1013.36 1013.36 1013.40 1013.49 1013.63 1013.79 1013.98 1014.15
1012.81 1012.88 1013.00 1013.17 1013.38 1013.59 1013.78 1013.91 1013.97 1013.95 1013.86 1013.70 1013.49 1013.27 1013.06 1012.88 1012.76 1012.70 1012.70 1012.75 1012.85 1012.97 1013.10 1013.22 1013.32 1013.39 1013.42 1013.43 1013.42 1013.40 1013.40 1013.42 1013.47 1013.56 1013.68 1013.82 1013.97 1014.11
1012.20 1012.23 1012.31 1012.46 1012.65 1012.87 1013.09 1013.28 1013.43 1013.50 1013.51 1013.45 1013.34 1013.19 1013.03 1012.87 1012.74 1012.65 1012.60 1012.60 1012.64 1012.72 1012.83 1012.94 1013.06 1013.16 1013.26 1013.33 1013.39 1013.44 1013.49 1013.54 1013.61 1013.68 1013.77 1013.87 1013.97 1014.06
1011.71 1011.70 1011.75 1011.85 1012.02 1012.22 1012.44 1012.65 1012.84 1012.98 1013.06 1013.09 1013.06 1012.98 1012.87 1012.75 1012.62 1012.52 1012.44 1012.40 1012.40 1012.45 1012.54 1012.66 1012.79 1012.95 1013.10 1013.25 1013.39 1013.51 1013.61 1013.70 1013.77 1013.83 1013.89 1013.93 1013.97 1013.98
1011.27 1011.24 1011.26 1011.33 1011.46 1011.63 1011.82 1012.03 1012.23 1012.40 1012.53 1012.62 1012.65 1012.64 1012.59 1012.51 1012.41 1012.32 1012.23 1012.18 1012.16 1012.19 1012.27 1012.39 1012.56 1012.75 1012.97 1013.18 1013.39 1013.57 1013.72 1013.84 1013.93 1013.98 1014.00 1013.99 1013.96 1013.90
1010.82 1010.79 1010.79 1010.84 1010.93 1011.06 1011.22 1011.40 1011.59 1011.76 1011.92 1012.04 1012.13 1012.18 1012.19 1012.16 1012.11 1012.04 1011.98 1011.93 1011.92 1011.95 1012.03 1012.17 1012.35 1012.58 1012.84 1013.10 1013.36 1013.59 1013.79 1013.94 1014.03 1014.08 1014.07 1014.02 1013.94 1013.83
1010.27 1010.27 1010.28 1010.32 1010.39 1010.49 1010.62 1010.76 1010.92 1011.08 1011.24 1011.39 1011.51 1011.61 1011.67 1011.71 1011.71 1011.70 1011.67 1011.66 1011.67 1011.71 1011.81 1011.96 1012.16 1012.41 1012.69 1012.98 1013.27 1013.54 1013.76 1013.94 1014.05 1014.09 1014.08 1014.01 1013.90 1013.75
1009.61 1009.65 1009.70 1009.75 1009.82 1009.91 1010.00 1010.12 1010.25 1010.39 1010.54 1010.70 1010.85 1010.98 1011.10 1011.19 1011.26 1011.30 1011.34 1011.36 1011.41 1011.48 1011.59 1011.75 1011.96 1012.21 1012.49 1012.80 1013.10 1013.38 1013.62 1013.81 1013.94 1014.00 1014.00 1013.93 1013.82 1013.67
1008.89 1008.98 1009.07 1009.17 1009.26 1009.35 1009.43 1009.53 1009.63 1009.75 1009.89 1010.04 1010.20 1010.37 1010.53 1010.67 1010.79 1010.89 1010.98 1011.06 1011.14 1011.23 1011.36 1011.52 1011.72 1011.96 1012.23 1012.52 1012.81 1013.09 1013.34 1013.54 1013.68 1013.77 1013.80 1013.77 1013.68 1013.55
1008.20 1008.35 1008.51 1008.64 1008.77 1008.87 1008.97 1009.06 1009.15 1009.25 1009.38 1009.52 1009.68 1009.85 1010.03 1010.21 1010.37 1010.52 1010.65 1010.77 1010.88 1010.99 1011.12 1011.28 1011.47 1011.68 1011.92 1012.18 1012.44 1012.70 1012.94 1013.15 1013.31 1013.43 1013.50 1013.51 1013.47 1013.38
1007.68 1007.88 1008.08 1008.27 1008.43 1008.57 1008.68 1008.77 1008.86 1008.95 1009.06 1009.19 1009.34 1009.51 1009.69 1009.88 1010.06 1010.23 1010.38 1010.52 1010.65 1010.77 1010.90 1011.04 1011.20 1011.38 1011.59 1011.80 1012.03 1012.26 1012.48 1012.69 1012.87 1013.01 1013.12 1013.18 1013.20 1013.17
1007.41 1007.64 1007.87 1008.09 1008.29 1008.45 1008.58 1008.69 1008.78 1008.87 1008.97 1009.08 1009.21 1009.36 1009.53 1009.70 1009.87 1010.04 1010.20 1010.34 1010.47 1010.59 1010.71 1010.83 1010.97 1011.11 1011.27 1011.45 1011.63 1011.83 1012.03 1012.22 1012.41 1012.57 1012.71 1012.82 1012.89 1012.92
1007.40 1007.63 1007.87 1008.09 1008.30 1008.48 1008.63 1008.76 1008.86 1008.95 1009.05 1009.15 1009.26 1009.38 1009.52 1009.67 1009.82 1009.96 1010.10 1010.23 1010.35 1010.46 1010.57 1010.67 1010.78 1010.90 1011.02 1011.16 1011.31 1011.47 1011.63 1011.81 1011.99 1012.16 1012.33 1012.47 1012.59 1012.66
1007.57 1007.76 1007.97 1008.19 1008.39 1008.58 1008.74 1008.87 1008.99 1009.09 1009.19 1009.28 1009.38 1009.48 1009.59 1009.70 1009.82 1009.94 1010.05 1010.16 1010.27 1010.37 1010.47 1010.56 1010.65 1010.75 1010.85 1010.95 1011.07 1011.20 1011.34 1011.49 1011.66 1011.83 1012.00 1012.16 1012.31 1012.42
1007.79 1007.91 1008.06 1008.23 1008.40 1008.58 1008.74 1008.89 1009.02 1009.14 1009.24 1009.34 1009.43 1009.52 1009.61 1009.70 1009.79 1009.89 1009.99 1010.08 1010.18 1010.28 1010.38 1010.48 1010.57 1010.66 1010.75 1010.83 1010.93 1011.03 1011.14 1011.27 1011.42 1011.58 1011.74 1011.91 1012.07 1012.21
1007.88 1007.91 1007.98 1008.09 1008.22 1008.37 1008.52 1008.67 1008.82 1008.95 1009.08 1009.19 1009.30 1009.39 1009.48 1009.56 1009.65 1009.74 1009.84 1009.94 1010.05 1010.16 1010.27 1010.39 1010.49 1010.59 1010.68 1010.76 1010.84 1010.92 1011.01 1011.12 1011.24 1011.38 1011.54 1011.71 1011.87 1012.02
1007.75 1007.68 1007.66 1007.69 1007.77 1007.87 1008.01 1008.16 1008.31 1008.47 1008.62 1008.76 1008.89 1009.01 1009.12 1009.22 1009.33 1009.44 1009.55 1009.68 1009.82 1009.97 1010.11 1010.25 1010.39 1010.50 1010.61 1010.69 1010.76 1010.83 1010.90 1010.99 1011.09 1011.21 1011.35 1011.51 1011.68 1011.84
1007.40 1007.25 1007.15 1007.10 1007.11 1007.17 1007.27 1007.41 1007.57 1007.74 1007.91 1008.08 1008.25 1008.40 1008.55 1008.69 1008.83 1008.99 1009.15 1009.32 1009.51 1009.70 1009.88 1010.07 1010.23 1010.37 1010.49 1010.58 1010.64 1010.70 1010.75 1010.82 1010.90 1011.01 1011.14 1011.29 1011.46 1011.63
1006.96 1006.74 1006.57 1006.46 1006.40 1006.42 1006.48 1006.59 1006.74 1006.91 1007.10 1007.29 1007.48 1007.67 1007.86 1008.05 1008.25 1008.45 1008.67 1008.90 1009.14 1009.38 1009.62 1009.83 1010.03 1010.19 1010.31 1010.40 1010.46 1010.51 1010.54 1010.59 1010.65 1010.74 1010.87 1011.01 1011.18 1011.35
1006.60 1006.35 1006.13 1005.97 1005.87 1005.83 1005.86 1005.93 1006.04 1006.19 1006.37 1006.57 1006.77 1006.99 1007.21 1007.45 1007.69 1007.95 1008.22 1008.51 1008.80 1009.08 1009.36 1009.60 1009.81 1009.98 1010.10 1010.18 1010.23 1010.25 1010.27 1010.29 1010.34 1010.41 1010.52 1010.67 1010.83 1011.01
1006.52 1006.27 1006.04 1005.86 1005.72 1005.64 1005.61 1005.63 1005.70 1005.80 1005.95 1006.12 1006.31 1006.53 1006.76 1007.02 1007.30 1007.60 1007.91 1008.24 1008.56 1008.87 1009.16 1009.42 1009.63 1009.79 1009.89 1009.95 1009.97 1009.96 1009.95 1009.95 1009.98 1010.04 1010.14 1010.28 1010.44 1010.61
1006.84 1006.62 1006.41 1006.22 1006.07 1005.95 1005.87 1005.83 1005.84 1005.88 1005.97 1006.08 1006.24 1006.43 1006.65 1006.90 1007.19 1007.49 1007.82 1008.16 1008.49 1008.81 1009.09 1009.33 1009.52 1009.65 1009.72 1009.74 1009.72 1009.69 1009.65 1009.63 1009.63 1009.67 1009.76 1009.88 1010.03 1010.18
Thickness
5755 5754 5752 5751 5751 5749 5747 5744 5735 5729 5731 5737 5739 5742 5741 5740 5738 5736 5734 5733 5731 5729 5727 5725 5724 5722 5720 5718 5717 5716 5714 5713 5712 5710 5709 5708 5707 5706
5754 5752 5750 5750 5748 5747 5746 5744 5740 5733 5728 5733 5734 5736 5736 5735 5731 5730 5729 5728 5727 5725 5723 5721 5719 5717 5715 5714 5713 5711 5710 5708 5707 5706 5705 5704 5702 5701
5752 5750 5748 5747 5744 5743 5742 5740 5738 5734 5727 5729 5732 5732 5731 5729 5727 5726 5725 5724 5722 5720 5718 5716 5714 5713 5711 5709 5708 5706 5705 5704 5702 5701 5700 5699 5698 5697
5749 5747 5745 5744 5741 5739 5737 5735 5734 5732 5727 5723 5725 5726 5726 5725 5723 5721 5720 5720 5717 5715 5713 5711 5709 5707 5706 5704 5702 5701 5699 5698 5696 5695 5694 5693 5692 5691
5747 5744 5741 5739 5736 5734 5733 5731 5730 5730 5727 5722 5720 5721 5720 5719 5717 5716 5715 5713 5712 5709 5707 5705 5703 5701 5699 5698 5696 5694 5693 5692 5690 5688 5687 5686 5685 5684
5745 5742 5739 5735 5732 5730 5729 5727 5726 5723 5722 5719 5716 5715 5713 5713 5711 5707 5706 5706 5705 5704 5702 5699 5697 5695 5693 5691 5689 5687 5686 5684 5683 5681 5680 5679 5678 5677
5740 5738 5734 5732 5729 5726 5725 5722 5720 5718 5716 5714 5711 5709 5706 5704 5702 5701 5699 5698 5698 5697 5695 5693 5690 5688 5685 5683 5681 5680 5678 5677 5675 5674 5673 5672 5670 5669
5734 5733 5730 5727 5724 5722 5719 5717 5715 5712 5709 5707 5705 5702 5699 5698 5697 5695 5692 5690 5688 5691 5688 5685 5684 5680 5677 5675 5673 5672 5670 5668 5667 5666 5664 5663 5662 5661
5731 5728 5726 5724 5720 5717 5715 5712 5710 5707 5705 5702 5699 5696 5694 5693 5690 5689 5687 5685 5683 5684 5681 5677 5676 5673 5671 5668 5666 5664 5662 5660 5658 5656 5655 5654 5652 5651
5728 5724 5720 5716 5713 5710 5709 5707 5705 5702 5701 5698 5695 5693 5691 5689 5686 5684 5682 5680 5679 5678 5675 5670 5669 5666 5665 5661 5658 5656 5654 5652 5650 5648 5646 5644 5643 5642
5722 5718 5714 5709 5705 5702 5701 5699 5697 5695 5694 5692 5689 5687 5685 5683 5680 5677 5674 5672 5669 5668 5667 5663 5661 5658 5656 5653 5651 5648 5646 5643 5641 5639 5637 5635 5634 5633
5715 5711 5706 5702 5698 5695 5693 5691 5688 5687 5686 5684 5682 5680 5678 5676 5674 5671 5668 5664 5661 5658 5658 5655 5652 5650 5646 5646 5643 5640 5637 5635 5633 5630 5628 5626 5624 5623
5708 5704 5699 5694 5690 5687 5684 5682 5680 5678 5678 5677 5675 5673 5671 5669 5667 5665 5662 5658 5654 5650 5650 5647 5644 5641 5638 5635 5634 5632 5629 5627 5624 5621 5619 5617 5615 5613
5701 5698 5693 5688 5684 5680 5677 5675 5673 5671 5671 5669 5666 5664 5662 5660 5659 5657 5655 5652 5649 5645 5642 5639 5635 5632 5629 5625 5624 5623 5621 5619 5616 5613 5610 5608 5605 5603
5694 5690 5685 5681 5676 5672 5670 5667 5665 5664 5662 5660 5658 5656 5655 5653 5651 5648 5646 5643 5640 5637 5635 5631 5628 5624 5621 5618 5616 5614 5612 5610 5608 5605 5602 5599 5596 5594
5683 5679 5675 5671 5668 5666 5663 5660 5658 5657 5654 5652 5650 5649 5647 5644 5641 5638 5634 5632 5629 5627 5625 5623 5620 5617 5613 5611 5608 5606 5604 5601 5599 5596 5593 5591 5588 5585
5673 5670 5667 5663 5661 5659 5657 5655 5652 5649 5646 5644 5642 5639 5636 5634 5631 5629 5625 5623 5619 5617 5615 5613 5611 5608 5605 5602 5599 5597 5594 5592 5589 5587 5584 5581 5579 5576
5663 5662 5659 5657 5654 5652 5650 5647 5644 5641 5638 5636 5633 5630 5627 5624 5621 5619 5616 5613 5610 5608 5605 5602 5599 5596 5593 5591 5589 5587 5584 5582 5579 5577 5574 5571 5570 5568
5654 5653 5651 5648 5646 5644 5642 5639 5636 5634 5631 5627 5624 5621 5618 5615 5612 5609 5606 5602 5599 5597 5595 5592 5589 5584 5579 5578 5577 5576 5573 5571 5569 5567 5564 5562 5560 5559
5647 5645 5642 5640 5637 5635 5633 5631 5628 5625 5622 5618 5615 5612 5608 5605 5602 5599 5596 5593 5589 5587 5584 5582 5578 5575 5570 5568 5567 5566 5564 5562 5559 5556 5554 5552 5550 5549
5638 5636 5635 5632 5629 5626 5624 5622 5619 5616 5612 5609 5606 5602 5599 5596 5593 5590 5587 5583 5580 5577 5574 5572 5570 5567 5564 5561 5558 5557 5556 5553 5550 5547 5544 5542 5540 5538
5629 5627 5625 5623 5619 5616 5614 5611 5609 5606 5603 5599 5596 5593 5589 5586 5583 5580 5577 5574 5571 5568 5565 5563 5561 5558 5554 5550 5548 5547 5546 5544 5541 5538 5534 5532 5529 5527
5618 5616 5614 5612 5609 5606 5604 5601 5599 5596 5592 5588 5585 5582 5579 5576 5573 5570 5567 5564 5561 5558 5555 5552 5549 5547 5545 5542 5539 5538 5536 5534 5532 5529 5526 5524 5521 5519